[[{"header":{"parameterUnit":"m.s-1","parameterCategory":1,"la1":30.2991,"la2":30.254,"lo1":-89.0895,"lo2":-89.0444,"dy":0.0017,"dx":0.0017,"nx":28,"ny":28,"refTime":"2024-07-25T09:00:00:Z","depth":0,"parameterNumber":2,"parameterNumberName":"U-component_of_WINDS"},"data":[0,0,0,0,0,0,0,0,0,0,0,0,0,0,0,0,0,0,0,0,0,0,0,0,0,0,0,0,0,0,0,0,0,0,0,0,0,0,0,0,0,0,0,0,0,0,0,0,0,0,0,0,0,0,0,0,0,0,0.3452,0.3453,0,0.3564,0.3565,0.3567,0.363,0.363,0.363,0.363,0.3747,0.3749,0.3752,0,0,0,0,0,0,0,0,0,0,0,0,0,0.3291,0.3294,0.3452,0.3453,0.3454,0.3564,0.3565,0.3567,0.363,0.363,0.363,0.3631,0.3746,0.3749,0.3753,0,0,0,0,0,0,0,0,0,0,0,0,0,0.3378,0.3294,0.3451,0.3499,0.3504,0.3564,0.3565,0.3567,0.363,0.363,0.363,0.3631,0.3745,0.3749,0.3753,0.3774,0,0,0.3766,0.3768,0,0,0,0,0,0,0,0,0.3373,0.3384,0.3491,0.3496,0.3502,0.3583,0.3551,0.3637,0.363,0.3582,0.363,0.3631,0.3692,0.3701,0.3721,0.3779,0.3784,0.3767,0.3769,0.3771,0.3773,0,0,0,0,0,0,0,0.3367,0.3379,0.3496,0.3492,0.3499,0.3515,0.3527,0.3568,0.3634,0.3586,0.3591,0.3604,0.3695,0.3717,0.3724,0.3786,0.3767,0.3771,0.3773,0.3775,0.3865,0.3865,0,0,0,0,0,0,0.3353,0.3374,0.3493,0.35,0.3437,0.3517,0.3531,0.3557,0.3634,0.3646,0.3603,0.3606,0.3709,0.3719,0.3729,0.3757,0.3771,0.3775,0.3778,0.3865,0.3865,0.3865,0,0,0,0,0,0,0.3349,0.3363,0.3488,0.3438,0.3455,0.352,0.3548,0.3559,0.3581,0.3647,0.3659,0.3613,0.371,0.3723,0.3762,0.3762,0.3777,0.3781,0.3866,0.3865,0.3865,0.3814,0,0,0,0,0,0,0.3344,0.3361,0.337,0.3438,0.3457,0.3519,0.3548,0.3561,0.3588,0.3593,0.3659,0.367,0.3711,0.3755,0.3766,0.3768,0.3785,0.3866,0.3866,0.3865,0.3816,0.3812,0.3809,0,0,0,0,0,0.3338,0.3352,0.337,0.3384,0.347,0.3519,0.353,0.3577,0.3588,0.3597,0.3639,0.3668,0.376,0.3758,0.3772,0.3775,0.3866,0.3866,0.3865,0.3818,0.3813,0.3809,0,0,0,0,0,0,0.3283,0.3362,0.3383,0.3419,0.3461,0.353,0.3543,0.357,0.3611,0.3614,0.367,0.3685,0.3718,0.3751,0.3747,0.3798,0.3816,0.3818,0.3776,0.3772,0.3768,0.3759,0.3788,0,0,0,0,0,0.3275,0.3309,0.3375,0.34,0.3421,0.3478,0.3501,0.3533,0.358,0.3598,0.3643,0.3688,0.3727,0.3751,0.3791,0.3821,0.3836,0.383,0.3826,0.3823,0.3824,0.3841,0.3839,0.3863,0.3863,0.3863,0,0,0.3259,0.3306,0.3324,0.339,0.3427,0.346,0.3493,0.3527,0.3551,0.3604,0.3643,0.3677,0.3731,0.3765,0.3782,0.3793,0.382,0.3822,0.3819,0.3822,0.384,0.3838,0.3836,0.3863,0.3863,0.3863,0,0,0.3246,0.3285,0.331,0.3346,0.3401,0.3439,0.3444,0.3508,0.3533,0.3573,0.3612,0.3642,0.3709,0.3744,0.3771,0.377,0.3798,0.3781,0.3762,0.3778,0.3776,0.3774,0.3773,0.3772,0.3782,0.3782,0.3782,0,0.3219,0.327,0.3319,0.335,0.3378,0.3426,0.345,0.3483,0.3548,0.3566,0.3577,0.366,0.3699,0.3742,0.3741,0.3762,0.377,0.3774,0.3772,0.3771,0.3771,0.377,0.3769,0.3779,0.378,0.378,0.378,0,0.3233,0.3268,0.3281,0.3342,0.3372,0.3399,0.3452,0.3475,0.3504,0.354,0.358,0.3628,0.3678,0.369,0.3719,0.3737,0.3741,0.3762,0.3781,0.3765,0.3765,0.3765,0.3776,0.3777,0.3778,0.3778,0,0,0.319,0.3276,0.328,0.3308,0.3371,0.3399,0.3429,0.3476,0.3495,0.3538,0.3564,0.3617,0.3636,0.3666,0.37,0.3714,0.3707,0.3732,0.3734,0.3725,0.3728,0.3712,0.3711,0.3727,0.3727,0.3727,0.3723,0,0.3185,0.324,0.3284,0.3323,0.3355,0.34,0.3425,0.3467,0.3501,0.3533,0.3571,0.3608,0.363,0.3648,0.3664,0.3705,0.3709,0.3706,0.375,0.3751,0.3735,0.3711,0.3694,0.3688,0.3724,0.3724,0.3724,0,0.3188,0.3228,0.3269,0.3328,0.3343,0.3366,0.3412,0.3442,0.349,0.3514,0.3546,0.358,0.3613,0.3628,0.3673,0.367,0.3691,0.3713,0.3714,0.372,0.3736,0.3715,0.3688,0.3686,0.3724,0.3724,0.3724,0,0.315,0.3215,0.3248,0.327,0.334,0.3354,0.3384,0.3432,0.3457,0.3498,0.3514,0.3558,0.3582,0.3615,0.366,0.3667,0.3699,0.3719,0.3719,0.3718,0.3724,0.3723,0.3699,0.3738,0.3738,0.3738,0.3738,0,0.314,0.3163,0.3231,0.3251,0.3278,0.3328,0.3353,0.3387,0.3429,0.3456,0.3498,0.3522,0.358,0.3611,0.3646,0.3677,0.3688,0.3708,0.3717,0.3704,0.3701,0.3717,0.3719,0.3738,0.3738,0.3738,0.3738,0,0.3103,0.3149,0.3188,0.325,0.3267,0.3283,0.3337,0.3358,0.3394,0.3427,0.3438,0.3494,0.3533,0.358,0.3635,0.3658,0.3685,0.3699,0.3669,0.3674,0.3671,0.367,0.3656,0.3656,0.3696,0.3695,0.3695,0,0.3093,0.3112,0.3176,0.3197,0.3225,0.3258,0.3284,0.3333,0.3358,0.3413,0.3426,0.3468,0.3504,0.3563,0.3609,0.365,0.3665,0.3657,0.3672,0.3657,0.3663,0.3661,0.3663,0.3653,0.3653,0.3652,0.3652,0,0.307,0.3092,0.3127,0.317,0.3199,0.3236,0.3274,0.3288,0.3345,0.3371,0.3411,0.3438,0.3493,0.3533,0.3579,0.361,0.364,0.3647,0.3649,0.3635,0.3616,0.3625,0.3658,0.3647,0.3647,0.3648,0.3648,0.3648,0.3046,0.3064,0.3112,0.3149,0.3183,0.3217,0.3239,0.3277,0.3311,0.3358,0.3385,0.3424,0.3469,0.3535,0.3564,0.3594,0.3605,0.3609,0.3609,0.3609,0.3604,0.3611,0.3603,0.3603,0.3604,0.3604,0.3604,0,0.3025,0.3057,0.3091,0.3142,0.3171,0.3196,0.3239,0.3262,0.3295,0.3335,0.3369,0.3413,0.3452,0.35,0.3542,0.3557,0.3571,0.3566,0.3565,0.3571,0.3593,0.3586,0.3553,0.3553,0.3553,0.3553,0.3553,0.3553,0.3017,0.3048,0.3075,0.3123,0.3156,0.3193,0.3215,0.3246,0.3278,0.3326,0.3358,0.3389,0.3432,0.3477,0.3513,0.3526,0.3539,0.3529,0.3546,0.3565,0.357,0.3574,0.3568,0.3532,0.3532,0.3522,0.3522,0.3522]},{"header":{"parameterUnit":"m.s-1","parameterCategory":1,"la1":30.2991,"la2":30.254,"lo1":-89.0895,"lo2":-89.0444,"dy":0.0017,"dx":0.0017,"nx":28,"ny":28,"refTime":"2024-07-25T09:00:00:Z","depth":0,"parameterNumber":3,"parameterNumberName":"V-component_of_WINDS"},"data":[0,0,0,0,0,0,0,0,0,0,0,0,0,0,0,0,0,0,0,0,0,0,0,0,0,0,0,0,0,0,0,0,0,0,0,0,0,0,0,0,0,0,0,0,0,0,0,0,0,0,0,0,0,0,0,0,0,0,2.3901,2.39,0,2.3813,2.3812,2.3811,2.3781,2.3782,2.3782,2.3782,2.3686,2.3683,2.368,0,0,0,0,0,0,0,0,0,0,0,0,0,2.4038,2.4036,2.3901,2.39,2.3899,2.3813,2.3812,2.3811,2.3781,2.3782,2.3782,2.3783,2.3687,2.3684,2.368,0,0,0,0,0,0,0,0,0,0,0,0,0,2.3967,2.4035,2.3901,2.3874,2.3871,2.3814,2.3812,2.381,2.3781,2.3782,2.3782,2.3783,2.3688,2.3684,2.368,2.3641,0,0,2.3666,2.3664,0,0,0,0,0,0,0,0,2.3971,2.3962,2.3879,2.3876,2.3872,2.3809,2.3825,2.3753,2.3781,2.3815,2.3782,2.3783,2.3726,2.3719,2.3701,2.3637,2.3633,2.3666,2.3663,2.3661,2.366,0,0,0,0,0,0,0,2.3976,2.3966,2.3866,2.3878,2.3874,2.3864,2.3855,2.3811,2.3768,2.3812,2.381,2.38,2.3724,2.3705,2.3698,2.3631,2.3666,2.3662,2.3659,2.3658,2.3532,2.3531,0,0,0,0,0,0,2.3987,2.397,2.3869,2.3863,2.3924,2.3862,2.3851,2.3828,2.3769,2.376,2.38,2.3799,2.3712,2.3703,2.3695,2.3646,2.3661,2.3657,2.3655,2.3532,2.3531,2.3531,0,0,0,0,0,0,2.399,2.3978,2.3872,2.3916,2.3902,2.3859,2.3834,2.3826,2.3807,2.3759,2.3751,2.3788,2.3712,2.3701,2.3655,2.3642,2.3655,2.3651,2.3533,2.3532,2.3531,2.3548,0,0,0,0,0,0,2.3994,2.3979,2.3965,2.3916,2.39,2.3836,2.3833,2.3824,2.38,2.3799,2.3746,2.3738,2.3712,2.3662,2.3651,2.3636,2.3648,2.3534,2.3533,2.3531,2.3548,2.3548,2.3547,0,0,0,0,0,2.3999,2.3972,2.3965,2.3953,2.3882,2.3835,2.3826,2.3798,2.38,2.3784,2.3754,2.374,2.3646,2.3658,2.3645,2.3629,2.3535,2.3533,2.3532,2.3549,2.3548,2.3547,0,0,0,0,0,0,2.4018,2.3965,2.3956,2.3913,2.3879,2.383,2.381,2.3798,2.3761,2.376,2.3725,2.3714,2.3671,2.3645,2.3659,2.3589,2.3589,2.3585,2.3607,2.3605,2.3605,2.3611,2.3644,0,0,0,0,0,2.4017,2.3986,2.3941,2.3907,2.3891,2.3854,2.3832,2.3814,2.3777,2.3761,2.3727,2.369,2.3652,2.3627,2.359,2.3545,2.3533,2.3528,2.3527,2.3527,2.3523,2.3497,2.3494,2.3525,2.3525,2.3525,0,0,2.4015,2.3982,2.3964,2.391,2.3881,2.3848,2.3842,2.3806,2.3781,2.3755,2.3711,2.3685,2.3641,2.3596,2.3574,2.3573,2.3512,2.3525,2.3525,2.3521,2.3495,2.3492,2.349,2.3524,2.3524,2.3525,0,0,2.3994,2.3967,2.3936,2.3908,2.3867,2.3843,2.3835,2.3789,2.3771,2.3727,2.3707,2.3676,2.3611,2.3581,2.3557,2.3527,2.3512,2.3516,2.3511,2.3486,2.3484,2.3482,2.347,2.3467,2.3512,2.3512,2.3512,0,2.3996,2.3947,2.3921,2.3887,2.3864,2.3842,2.381,2.3784,2.3731,2.3714,2.3715,2.3634,2.3603,2.3551,2.3544,2.3525,2.3515,2.352,2.3487,2.3484,2.3482,2.347,2.3466,2.3513,2.3513,2.3513,2.3513,0,2.3951,2.3917,2.3897,2.3849,2.3823,2.379,2.3758,2.3735,2.372,2.3696,2.365,2.3613,2.3567,2.3554,2.3537,2.3499,2.35,2.3494,2.3494,2.348,2.3468,2.3464,2.3514,2.3513,2.3513,2.3513,0,0,2.3936,2.3877,2.387,2.3849,2.3802,2.3775,2.3741,2.3699,2.3679,2.3644,2.3614,2.3561,2.3556,2.3529,2.3509,2.3488,2.3466,2.3484,2.3483,2.3482,2.3421,2.3425,2.342,2.3457,2.3456,2.3456,2.3425,0,2.3909,2.3849,2.3826,2.3777,2.3745,2.3726,2.3696,2.3663,2.364,2.3608,2.3582,2.3545,2.3542,2.3525,2.3504,2.3474,2.3453,2.3476,2.3427,2.3425,2.3437,2.3414,2.3418,2.339,2.342,2.3419,2.3419,0,2.3867,2.3835,2.3783,2.3742,2.3728,2.3702,2.3662,2.3633,2.3595,2.358,2.3551,2.3533,2.3496,2.35,2.3447,2.3463,2.3442,2.3424,2.3422,2.3415,2.342,2.3406,2.3381,2.3376,2.3412,2.3412,2.3413,0,2.3861,2.3804,2.3767,2.3749,2.37,2.3682,2.366,2.3624,2.3601,2.3565,2.355,2.351,2.3488,2.3457,2.3428,2.3434,2.3378,2.3379,2.3362,2.3363,2.3349,2.335,2.332,2.3339,2.3339,2.3339,2.3339,0,2.3832,2.3801,2.3763,2.374,2.3704,2.3678,2.3643,2.362,2.3588,2.3558,2.3539,2.3511,2.3476,2.3443,2.342,2.338,2.337,2.3355,2.3349,2.3356,2.3358,2.334,2.3341,2.3338,2.3338,2.3338,2.3338,0,2.3818,2.3792,2.3749,2.3708,2.3696,2.3672,2.3635,2.3611,2.3588,2.3551,2.3541,2.3504,2.3465,2.3434,2.3382,2.3367,2.3324,2.3318,2.3337,2.3334,2.3318,2.332,2.3274,2.3266,2.3292,2.3292,2.3291,0,2.38,2.3776,2.3733,2.3713,2.3693,2.366,2.3637,2.3611,2.3587,2.3544,2.3525,2.3485,2.3451,2.339,2.3357,2.3317,2.3309,2.3296,2.3303,2.3311,2.3308,2.3309,2.3306,2.3295,2.3295,2.3295,2.3295,0,2.3771,2.376,2.3729,2.3693,2.3667,2.3637,2.3607,2.3591,2.3559,2.3533,2.3494,2.3469,2.3418,2.3378,2.3335,2.3311,2.3297,2.3293,2.3287,2.3293,2.3305,2.3297,2.3334,2.3294,2.3294,2.3294,2.3294,2.3294,2.3753,2.3732,2.3698,2.3664,2.364,2.3612,2.3588,2.3563,2.3531,2.3489,2.3475,2.3435,2.3398,2.334,2.3316,2.3283,2.3282,2.3273,2.3271,2.3268,2.3269,2.3312,2.3275,2.3275,2.3275,2.3275,2.3275,0,2.3722,2.3701,2.367,2.363,2.3603,2.3596,2.3562,2.3539,2.3505,2.3474,2.3442,2.3398,2.336,2.3325,2.3285,2.3265,2.3258,2.3256,2.3256,2.325,2.3273,2.3282,2.3262,2.3262,2.3263,2.3263,2.3263,2.3263,2.3703,2.3666,2.3651,2.3601,2.3579,2.3542,2.3523,2.3497,2.3472,2.3424,2.3394,2.3373,2.334,2.3298,2.3262,2.3253,2.3238,2.3237,2.3226,2.3247,2.3249,2.325,2.3259,2.3235,2.3235,2.3206,2.3206,2.3206]}]]